| time (UTC) | temp C | wind direction | speed KPH | gust KPH | rain 1hr cm | rain 24hr cm | rain mn cm | humidity % | barometer mb |
| 20260506121535 | 22 | 126 | 0.0 | 0.0 | 0.00 | 0.00 | 0.00 | 92 | 1006.6 |
| 20260506120039 | 22 | 126 | 0.0 | 0.0 | 0.00 | 0.00 | 0.00 | 92 | 1006.7 |
| 20260506114533 | 22 | 195 | 0.0 | 0.0 | 0.00 | 0.00 | 0.00 | 91 | 1006.5 |
| 20260506113039 | 22 | 195 | 0.0 | 0.0 | 0.00 | 0.00 | 0.00 | 91 | 1006.6 |
| 20260506111532 | 22 | 195 | 0.0 | 0.0 | 0.00 | 0.00 | 0.00 | 91 | 1006.7 |
| 20260506110031 | 22 | 195 | 0.0 | 0.0 | 0.00 | 0.00 | 0.00 | 91 | 1006.6 |
| 20260506104533 | 22 | 195 | 0.0 | 0.0 | 0.00 | 0.00 | 0.00 | 91 | 1006.5 |
| 20260506103027 | 22 | 195 | 0.0 | 0.0 | 0.00 | 0.00 | 0.00 | 90 | 1006.4 |
| 20260506101527 | 23 | 152 | 0.0 | 0.0 | 0.00 | 0.00 | 0.00 | 90 | 1006.3 |
| 20260506100025 | 23 | 237 | 0.0 | 0.0 | 0.00 | 0.00 | 0.00 | 89 | 1006.1 |
| 20260506094524 | 23 | 93 | 0.0 | 0.0 | 0.00 | 0.00 | 0.00 | 89 | 1006.0 |
| 20260506093022 | 23 | 165 | 1.6 | 0.0 | 0.00 | 0.00 | 0.00 | 88 | 1005.8 |
| 20260506091520 | 23 | 80 | 0.0 | 0.0 | 0.00 | 0.00 | 0.00 | 87 | 1005.7 |
| 20260506090023 | 23 | 133 | 1.6 | 0.0 | 0.00 | 0.00 | 0.00 | 87 | 1005.4 |
| 20260506084520 | 23 | 115 | 1.6 | 0.0 | 0.00 | 0.00 | 0.00 | 87 | 1005.5 |
| 20260506083017 | 23 | 258 | 1.6 | 0.0 | 0.00 | 0.00 | 0.00 | 87 | 1005.4 |
| 20260506081519 | 23 | 106 | 3.2 | 0.0 | 0.00 | 0.00 | 0.00 | 86 | 1005.3 |
| 20260506073013 | 23 | 145 | 3.2 | 0.0 | 0.00 | 0.00 | 0.00 | 86 | 1005.7 |
| 20260506071513 | 23 | 147 | 3.2 | 0.0 | 0.00 | 0.00 | 0.00 | 86 | 1005.9 |
| 20260506061510 | 23 | 135 | 4.8 | 0.0 | 0.00 | 0.00 | 0.00 | 86 | 1005.8 |
| 20260506044500 | 24 | 152 | 3.2 | 0.0 | 0.00 | 0.00 | 0.00 | 85 | 1005.7 |
| 20260506043002 | 24 | 116 | 3.2 | 0.0 | 0.00 | 0.00 | 0.00 | 85 | 1005.8 |
| 20260506041605 | 24 | 184 | 3.2 | 0.0 | 0.00 | 0.00 | 0.00 | 85 | 1005.6 |
| 20260506040100 | 24 | 110 | 3.2 | 0.0 | 0.00 | 0.00 | 0.00 | 84 | 1005.6 |
| 20260506034615 | 24 | 174 | 3.2 | 0.0 | 0.00 | 0.00 | 0.00 | 84 | 1005.2 |
| 20260506033059 | 24 | 162 | 3.2 | 0.0 | 0.00 | 0.00 | 0.00 | 83 | 1005.1 |
| 20260506031608 | 25 | 149 | 4.8 | 0.0 | 0.00 | 0.00 | 0.00 | 82 | 1005.0 |
| 20260506030058 | 25 | 144 | 1.6 | 0.0 | 0.00 | 0.00 | 0.00 | 82 | 1004.8 |
| 20260506024618 | 25 | 126 | 1.6 | 0.0 | 0.00 | 0.00 | 0.00 | 81 | 1004.7 |
| 20260506023057 | 25 | 149 | 1.6 | 0.0 | 0.00 | 0.00 | 0.00 | 80 | 1004.3 |
| 20260506021558 | 25 | 132 | 1.6 | 0.0 | 0.00 | 0.00 | 0.00 | 79 | 1004.1 |
| 20260506020058 | 25 | 135 | 1.6 | 0.0 | 0.00 | 0.00 | 0.00 | 79 | 1003.8 |
| 20260506014556 | 25 | 126 | 1.6 | 0.0 | 0.00 | 0.00 | 0.00 | 78 | 1003.7 |
| 20260506013108 | 26 | 145 | 1.6 | 0.0 | 0.00 | 0.00 | 0.00 | 77 | 1003.7 |
| 20260506011607 | 26 | 185 | 1.6 | 0.0 | 0.00 | 0.00 | 0.00 | 76 | 1003.5 |
| 20260506010057 | 26 | 145 | 1.6 | 0.0 | 0.00 | 0.00 | 0.00 | 75 | 1003.5 |
| 20260506004554 | 27 | 226 | 1.6 | 0.0 | 0.00 | 0.00 | 0.00 | 74 | 1003.6 |
| 20260506003053 | 27 | 115 | 1.6 | 0.0 | 0.00 | 0.00 | 0.00 | 73 | 1003.5 |
| 20260506001553 | 27 | 91 | 1.6 | 0.0 | 0.00 | 0.00 | 0.00 | 72 | 1003.7 |
| 20260506000052 | 27 | 141 | 1.6 | 0.0 | 0.00 | 0.00 | 0.00 | 72 | 1003.6 |
| 20260505234552 | 27 | 190 | 1.6 | 0.0 | 0.00 | 0.00 | 0.00 | 72 | 1003.4 |
| 20260505233051 | 27 | 154 | 3.2 | 0.0 | 0.00 | 0.00 | 0.00 | 71 | 1003.3 |
| 20260505231551 | 28 | 122 | 3.2 | 0.0 | 0.00 | 0.00 | 0.00 | 70 | 1003.0 |
| 20260505224550 | 28 | 162 | 4.8 | 0.0 | 0.00 | 0.00 | 0.00 | 69 | 1003.0 |
| 20260505223057 | 28 | 70 | 3.2 | 0.0 | 0.00 | 0.00 | 0.00 | 68 | 1003.0 |
| 20260505221549 | 28 | 125 | 4.8 | 0.0 | 0.00 | 0.00 | 0.00 | 68 | 1003.0 |
| 20260505220048 | 28 | 81 | 4.8 | 0.0 | 0.00 | 0.00 | 0.00 | 68 | 1003.2 |
| 20260505214548 | 29 | 74 | 4.8 | 0.0 | 0.00 | 0.00 | 0.00 | 67 | 1003.3 |
| 20260505213054 | 29 | 205 | 4.8 | 0.0 | 0.00 | 0.00 | 0.00 | 67 | 1003.5 |
| 20260505211542 | 29 | 261 | 3.2 | 0.0 | 0.00 | 0.00 | 0.00 | 67 | 1003.7 |
| 20260505210041 | 29 | 85 | 4.8 | 0.0 | 0.00 | 0.00 | 0.00 | 68 | 1003.7 |
| 20260505204541 | 28 | 91 | 6.4 | 0.0 | 0.00 | 0.00 | 0.00 | 69 | 1003.8 |
| 20260505203045 | 28 | 135 | 3.2 | 0.0 | 0.00 | 0.00 | 0.00 | 69 | 1004.0 |
| 20260505201537 | 29 | 127 | 3.2 | 0.0 | 0.00 | 0.00 | 0.00 | 69 | 1004.3 |
| 20260505200036 | 28 | 185 | 4.8 | 0.0 | 0.00 | 0.00 | 0.00 | 68 | 1004.4 |
| 20260505194534 | 29 | 149 | 3.2 | 0.0 | 0.00 | 0.00 | 0.00 | 69 | 1004.7 |
| 20260505193031 | 28 | 207 | 3.2 | 0.0 | 0.00 | 0.00 | 0.00 | 68 | 1005.0 |
| 20260505191530 | 28 | 228 | 3.2 | 0.0 | 0.00 | 0.00 | 0.00 | 69 | 1005.0 |
| 20260505190027 | 28 | 195 | 3.2 | 0.0 | 0.00 | 0.00 | 0.00 | 70 | 1005.2 |
| 20260505184527 | 27 | 287 | 3.2 | 0.0 | 0.00 | 0.00 | 0.00 | 70 | 1005.4 |
| 20260505183025 | 27 | 245 | 3.2 | 0.0 | 0.00 | 0.00 | 0.00 | 72 | 1005.7 |
| 20260505181520 | 26 | 215 | 3.2 | 0.0 | 0.00 | 0.00 | 0.00 | 74 | 1005.9 |
| 20260505180018 | 26 | 216 | 3.2 | 0.0 | 0.00 | 0.00 | 0.00 | 74 | 1006.1 |
| 20260505174516 | 25 | 156 | 3.2 | 0.0 | 0.00 | 0.00 | 0.00 | 76 | 1006.2 |
| 20260505173032 | 25 | 187 | 3.2 | 0.0 | 0.00 | 0.00 | 0.00 | 78 | 1006.3 |
| 20260505171509 | 24 | 207 | 3.2 | 0.0 | 0.00 | 0.00 | 0.00 | 78 | 1006.4 |
| 20260505170006 | 23 | 272 | 3.2 | 0.0 | 0.00 | 0.00 | 0.00 | 81 | 1006.5 |
| 20260505164505 | 23 | 195 | 1.6 | 0.0 | 0.00 | 0.00 | 0.00 | 82 | 1006.5 |
| 20260505163009 | 23 | 199 | 3.2 | 0.0 | 0.00 | 0.00 | 0.00 | 82 | 1006.5 |
| 20260505161600 | 22 | 153 | 1.6 | 0.0 | 0.00 | 0.00 | 0.00 | 83 | 1006.4 |
| 20260505153108 | 22 | 212 | 1.6 | 0.0 | 0.00 | 0.00 | 0.00 | 85 | 1006.6 |
| 20260505151558 | 21 | 297 | 1.6 | 0.0 | 0.00 | 0.00 | 0.00 | 85 | 1006.4 |
| 20260505124548 | 21 | 203 | 3.2 | 0.0 | 0.00 | 0.00 | 0.00 | 86 | 1005.3 |
| 20260505123046 | 21 | 165 | 3.2 | 0.0 | 0.00 | 0.00 | 0.00 | 86 | 1005.0 |